DateTimeUTC,F1_A11,F1_S11,BsB_S11,BsG_S11,BsR_S11,BbsB_S11,BbsG_S11,BbsR_S11,BaB_A11,BaG_A11,BaR_A11,Tu_S11,T_S11,Uu_S11,U_S11,P_S11,T1_A11
2021-07-06T21:00:00Z,00000200,20000000,,,,,,,0000.27,-000.26,0000.08,19.3,26.0,06.6,04.4,0660.1,31.2
2021-07-06T21:01:00Z,00000200,20000000,,,,,,,-000.21,0000.39,0000.23,19.2,26.0,06.6,04.4,0660.1,31.2
2021-07-06T21:02:00Z,00000200,20000000,,,,,,,-000.41,-000.59,-000.38,19.2,26.0,06.7,04.4,0660.1,31.2
2021-07-06T21:03:00Z,00000200,60000000,,,,,,,0000.17,0000.22,0000.25,19.2,26.0,06.7,04.4,0660.1,31.2
2021-07-06T21:04:00Z,00000200,40000000,0000.12,0000.21,0000.11,-000.39,0000.20,-000.04,-000.05,-000.46,0000.02,19.3,25.8,06.4,04.3,0661.0,31.2
2021-07-06T21:05:00Z,00000200,00000000,0000.34,0000.35,0000.43,-000.04,-000.07,0000.25,-000.09,0000.38,-000.19,19.4,25.8,06.4,04.3,0661.0,31.2
2021-07-06T21:06:00Z,00000200,00000000,-000.01,0000.27,0000.25,0000.59,0000.30,0000.06,0000.04,-000.04,-000.06,19.4,25.8,06.4,04.3,0661.0,31.2
2021-07-06T21:07:00Z,00000200,00000000,-000.51,0000.26,-000.14,-000.44,0000.20,-000.11,-000.08,0000.14,-000.07,19.5,25.8,06.3,04.3,0661.0,31.2
2021-07-06T21:08:00Z,00000200,00000000,-000.06,0000.30,-000.17,0000.04,0000.20,0000.01,0000.06,0000.08,0000.14,19.6,25.9,06.4,04.4,0661.1,31.3
2021-07-06T21:09:00Z,00000200,00000000,0000.19,0000.30,0000.19,0000.10,0000.49,0000.05,0000.21,-000.25,0000.31,19.6,25.9,06.4,04.4,0661.1,31.2
2021-07-06T21:10:00Z,00000200,00000000,0000.10,0000.02,-000.45,0000.31,0000.07,-000.17,-000.02,0000.34,0000.10,19.7,25.9,06.4,04.4,0661.1,31.2
2021-07-06T21:11:00Z,00000200,00000000,0000.12,0000.33,-000.04,0000.02,-000.02,0000.05,0000.28,-000.04,-000.06,19.7,25.9,06.4,04.4,0661.1,31.2
2021-07-06T21:12:00Z,00000200,00000000,0000.18,0000.05,-000.10,0000.47,0000.10,0000.15,-000.24,0000.14,0000.08,19.7,25.9,06.4,04.4,0661.1,31.2
2021-07-06T21:13:00Z,00000200,00000000,0000.10,0000.22,-000.20,-000.23,0000.40,-000.02,0000.02,-000.15,-000.36,19.7,25.9,06.4,04.4,0661.1,31.2
2021-07-06T21:14:00Z,00000200,00000000,0000.19,0000.37,-000.38,0000.19,0000.18,-000.04,0000.27,0000.16,0000.38,19.6,25.9,06.4,04.4,0661.1,31.2
2021-07-06T21:15:00Z,00000200,00000000,0000.50,0000.14,-000.02,-000.15,0000.35,0000.22,-000.03,-000.07,-000.23,19.6,25.8,06.5,04.4,0661.1,31.2
2021-07-06T21:16:00Z,00000200,00000000,-000.53,0000.16,0000.08,-000.16,0000.14,0000.03,-000.32,-000.06,0000.25,19.6,25.8,06.4,04.4,0661.1,31.2
2021-07-06T21:17:00Z,00000200,00000000,0000.16,0000.13,-000.29,0000.56,0000.09,-000.07,0000.35,0000.22,-000.12,19.6,25.8,06.4,04.4,0661.1,31.2
2021-07-06T21:18:00Z,00000200,00000000,-000.20,0000.19,0000.19,-000.09,-000.15,0000.12,0000.14,-000.02,-000.08,19.6,25.8,06.4,04.4,0661.1,31.2
2021-07-06T21:19:00Z,00000200,00000000,0000.08,0000.32,0000.03,0000.08,0000.39,0000.53,-000.15,-000.15,0000.04,19.6,25.8,06.4,04.4,0661.1,31.2
2021-07-06T21:20:00Z,00000200,00000000,0000.17,0000.21,0000.38,0000.40,0000.26,0000.18,0000.01,0000.41,-000.15,19.5,25.8,06.5,04.4,0661.1,31.2
2021-07-06T21:21:00Z,00000200,00000000,0000.38,0000.21,0000.05,-000.20,-000.32,0000.04,0000.29,-000.26,0000.25,19.5,25.8,06.4,04.4,0661.1,31.2
2021-07-06T21:22:00Z,00000200,00000000,0000.05,0000.25,-000.52,0000.33,0000.37,-000.17,-000.18,0000.30,-000.08,19.5,25.8,06.5,04.4,0661.1,31.2
2021-07-06T21:23:00Z,00000200,00000000,-000.12,-000.04,-000.08,0000.31,0000.17,0000.10,-000.00,-000.13,0000.33,19.5,25.8,06.5,04.4,0661.1,31.2
2021-07-06T21:24:00Z,00000200,00000000,-000.07,0000.32,-000.18,0000.23,0000.20,-000.05,0000.06,0000.13,-000.36,19.5,25.8,06.5,04.4,0661.1,31.2
2021-07-06T21:25:00Z,00000200,00000000,-000.28,0000.26,-000.13,-000.09,0000.18,-000.08,0000.09,-000.04,0000.51,19.5,25.8,06.5,04.4,0661.1,31.2
2021-07-06T21:26:00Z,00000200,00000000,0000.67,0000.17,0000.08,0000.13,0000.27,-000.08,0000.27,0000.06,-000.11,19.5,25.8,06.5,04.4,0661.1,31.2
2021-07-06T21:27:00Z,00000200,00000000,0000.46,0000.27,0000.02,0000.44,0000.09,-000.13,-000.28,0000.21,0000.02,19.5,25.8,06.6,04.5,0661.1,31.2
2021-07-06T21:28:00Z,00000200,00000000,0000.43,0000.17,-000.18,0000.00,0000.14,0000.03,0000.47,-000.31,-000.01,19.5,25.7,06.7,04.5,0661.0,31.2
2021-07-06T21:29:00Z,00000200,00000000,0000.37,-000.01,-000.09,0000.10,0000.22,0000.06,-000.12,0000.34,0000.01,19.5,25.7,06.7,04.6,0661.0,31.2
2021-07-06T21:30:00Z,00000200,00000000,-000.30,-000.18,0000.14,-000.25,0000.35,-000.02,0000.05,-000.13,0000.26,19.5,25.7,06.7,04.6,0661.0,31.2
2021-07-06T21:31:00Z,00000200,00000000,0000.07,0000.15,-000.09,0000.36,-000.04,-000.14,-000.12,0000.03,-000.23,19.4,25.7,06.6,04.5,0661.0,31.2
2021-07-06T21:32:00Z,00000200,00000000,0000.14,0000.18,0000.06,-000.05,0000.18,0000.19,0000.15,0000.02,-000.29,19.4,25.7,06.6,04.5,0661.0,31.2
2021-07-06T21:33:00Z,00000200,00000000,-000.23,-000.07,-000.24,0000.24,0000.03,0000.10,0000.01,-000.07,0000.10,19.4,25.7,06.7,04.5,0661.0,31.2
2021-07-06T21:34:00Z,00000200,00000000,0000.08,0000.18,0000.01,0000.34,0000.14,-000.23,-000.03,-000.04,0000.39,19.4,25.7,06.6,04.5,0661.0,31.2
2021-07-06T21:35:00Z,00000200,00000000,0000.55,0000.11,-000.21,-000.31,0000.43,-000.51,0000.34,0000.29,-000.38,19.4,25.7,06.7,04.6,0661.0,31.2
2021-07-06T21:36:00Z,00000200,00000000,-000.11,0000.63,0000.16,-000.04,0000.02,-000.12,0000.11,0000.28,0000.45,19.5,25.7,06.7,04.6,0661.0,31.2
2021-07-06T21:37:00Z,00000200,00000000,0000.49,0000.16,-000.25,-000.39,0000.00,-000.09,-000.53,-000.20,0000.11,19.6,25.8,06.6,04.5,0661.0,31.2
2021-07-06T21:38:00Z,00000200,00000000,0000.06,0000.09,-000.03,0000.10,0000.29,0000.25,0000.38,-000.11,-000.47,19.7,25.8,06.7,04.6,0661.0,31.2
2021-07-06T21:39:00Z,00000200,00000000,-000.43,0000.04,0000.13,-000.31,0000.13,-000.04,-000.30,-000.01,-000.09,19.7,25.9,06.5,04.5,0660.9,31.3
2021-07-06T21:40:00Z,00000200,00000000,0000.04,-000.13,0000.21,-000.50,-000.05,-000.13,0000.10,0000.02,0000.45,19.8,25.9,06.5,04.5,0661.0,31.3
2021-07-06T21:41:00Z,00000200,00000000,0000.32,0000.23,-000.01,0000.46,0000.15,0000.29,-000.11,0000.10,-000.25,19.8,25.9,06.4,04.4,0661.0,31.2
2021-07-06T21:42:00Z,00000200,00000000,-000.63,0000.65,0000.06,-000.20,0000.45,0000.11,-000.08,-000.25,0000.19,19.8,25.9,06.4,04.4,0661.0,31.3
2021-07-06T21:43:00Z,00000200,00000000,0001.07,0000.36,0000.08,-000.03,0000.10,0000.02,0000.13,0000.33,-000.27,19.7,25.9,06.3,04.4,0661.0,31.2
2021-07-06T21:44:00Z,00000200,00000000,0000.00,0000.40,-000.37,0000.06,0000.30,-000.39,0000.27,-000.14,0000.14,19.7,25.9,06.3,04.3,0661.0,31.2
2021-07-06T21:45:00Z,00000200,00000000,-000.20,-000.03,0000.19,0000.26,0000.39,0000.19,-000.23,-000.11,0000.18,19.7,25.9,06.2,04.3,0661.0,31.2
2021-07-06T21:46:00Z,00000200,00000000,-000.00,0000.56,0000.15,0000.53,-000.05,-000.04,-000.30,0000.17,-000.16,19.7,25.8,06.3,04.3,0661.0,31.2
2021-07-06T21:47:00Z,00000200,00000000,0000.17,0000.49,-000.20,0000.18,0000.39,-000.33,-000.06,0000.15,0000.10,19.6,25.8,06.2,04.3,0661.0,31.2
2021-07-06T21:48:00Z,00000200,00000000,0000.18,-000.15,0000.32,0000.27,0000.35,0000.31,-000.02,-000.65,-000.26,19.6,25.8,06.2,04.3,0661.0,31.2
2021-07-06T21:49:00Z,00000200,00000000,0000.59,0000.17,-000.06,0000.73,0000.02,0000.18,0000.24,0000.06,0000.29,19.6,25.8,06.1,04.1,0661.0,31.2
2021-07-06T21:50:00Z,00000200,00000000,0000.07,0000.45,-000.19,0000.56,0000.05,-000.16,-000.32,0000.05,-000.25,19.6,25.8,06.1,04.1,0661.0,31.2
2021-07-06T21:51:00Z,00000200,00000000,-000.57,0000.34,0000.16,0000.14,0000.27,0000.13,0000.27,-000.10,-000.18,19.6,25.8,06.0,04.1,0661.0,31.2
2021-07-06T21:52:00Z,00000200,00000000,0000.40,0000.28,-000.13,0000.13,0000.07,0000.02,-000.51,-000.23,0000.19,19.6,25.8,06.0,04.1,0661.0,31.2
2021-07-06T21:53:00Z,00000200,00000000,0000.35,0000.43,-000.10,0000.68,0000.08,0000.10,0000.25,0000.35,-000.25,19.5,25.8,05.9,04.0,0661.0,31.2
2021-07-06T21:54:00Z,00000200,00000000,0000.82,0000.60,-000.06,-000.09,0000.43,0000.22,0000.14,-000.12,0000.01,19.5,25.8,05.9,04.1,0661.0,31.2
2021-07-06T21:55:00Z,00000200,00000000,-000.09,0000.16,-000.05,-000.48,0000.24,-000.24,-000.11,-000.19,-000.04,19.5,25.8,05.9,04.0,0661.0,31.2
2021-07-06T21:56:00Z,00000200,00000000,0000.17,0000.14,0000.17,0000.77,0000.24,0000.10,-000.26,-000.21,0000.13,19.5,25.7,05.9,04.0,0661.0,31.2
2021-07-06T21:57:00Z,00000200,40000000,,,,,,,0000.31,0000.50,0000.10,19.5,25.8,05.4,03.7,0661.0,31.2
2021-07-06T21:58:00Z,00000200,60000000,,,,,,,-000.32,-000.11,-000.28,19.2,25.9,05.9,03.9,0660.0,31.2
2021-07-06T21:59:00Z,00000200,20000000,,,,,,,-000.02,-000.41,-000.10,19.2,26.0,05.9,03.9,0660.0,31.2
